#timestamp,LO_Frequency,Hit,StdDev 
1563307215.6,286047002.7,N
1563307235.4,286047002.3,N
1563307255.3,286047002.2,N
1563307275.1,286047002.0,N
1563307295.8,286047004.1,Y
1563307315.7,286047002.0,P
1563307335.5,286047002.1,P
1563307355.4,286047004.0,P
1563307375.2,286047001.6,N
1563307395.0,286047004.0,Y
1563307395.9,286047004.0,P
1563307415.8,286047000.3,N
1563307435.6,286047001.1,N
1563307455.5,286046998.4,N
1563307475.3,286046999.4,N
1563307495.1,286046998.9,N
1563307515.9,286046997.7,N
1563307535.7,286046996.1,N
1563307555.5,286046995.3,N
1563307575.4,286046994.4,N
1563307595.2,286046990.5,Y
1563307615.1,286046994.7,P
1563307616.0,286046994.7,N
1563307635.8,286046990.3,P
1563307655.6,286046991.0,N
1563307675.5,286046991.2,N
1563307695.3,286046992.4,N
1563307715.1,286046991.8,N
1563307735.9,286046992.0,Y
1563307755.7,286047000.9,P
1563307775.6,286046998.9,N
1563307795.4,286047000.0,N
1563307815.2,286047000.2,N
1563307835.1,286047000.8,N
1563307836.0,286047000.8,N
1563307855.8,286046998.1,N
1563307875.6,286046998.7,N
1563307895.5,286046998.8,N
1563307915.3,286047001.1,N
1563307935.2,286047001.2,N
1563307955.9,286047000.8,N
1563307975.7,286046998.2,N
1563307995.6,286047000.4,N
1563308015.4,286047002.8,N
1563308035.2,286046998.1,N
1563308055.1,286047000.9,N
1563308056.0,286047000.9,N
1563308075.8,286047000.0,N
1563308095.7,286046998.8,N
1563308115.5,286046998.9,N
1563308135.3,286046997.2,N
1563308155.2,286046997.7,N
1563308175.0,286046996.9,N
1563308175.9,286046996.9,N
1563308195.7,286046996.6,N
1563308215.6,286046999.1,N
1563308235.4,286046998.9,N
1563308255.3,286046998.9,N
1563308275.1,286046999.5,N
1563308276.0,286046999.5,N
1563308295.8,286046999.6,N
1563308315.7,286046996.9,N
1563308335.5,286046997.2,N
1563308355.4,286046997.7,N
1563308375.2,286046995.3,Y
1563308395.0,286046996.9,P
1563308395.9,286046996.9,N
1563308415.8,286046999.1,N
1563308435.6,286046999.4,N
1563308455.4,286046999.1,N
1563308475.3,286046999.2,N
1563308495.1,286047001.1,N
1563308515.9,286047000.5,N
1563308535.7,286047000.5,N
1563308555.5,286047000.9,N
1563308575.4,286047000.5,N
1563308595.2,286047000.3,N
1563308615.0,286047000.0,N
1563308615.9,286047000.0,N
1563308635.8,286047000.0,N
1563308655.6,286047000.0,N
1563308675.5,286047000.8,N
1563308695.3,286046999.0,N
1563308715.1,286046996.5,Y
1563308735.9,286046998.7,P
1563308755.7,286046996.6,P
1563308775.5,286046998.3,N
1563308795.4,286047001.5,N
1563308815.2,286047002.8,N
1563308835.1,286046999.9,N
1563308836.0,286046999.9,N
1563308855.8,286046999.1,N
1563308875.6,286046997.0,N
1563308895.5,286046999.1,N
1563308915.3,286046999.5,N
1563308935.1,286046997.3,N
1563308955.9,286046997.6,N
1563308975.7,286046997.5,N
1563308995.6,286046995.0,Y
1563309015.4,286046997.7,P
1563309035.2,286046997.1,P
1563309055.1,286046999.6,N
1563309056.0,286046999.6,N
1563309075.8,286046996.6,Y
1563309095.7,286047000.9,P
1563309115.5,286047000.1,N
1563309135.3,286046999.8,N
1563309155.2,286046999.7,N
1563309175.0,286046999.7,N
1563309175.9,286046999.7,N
1563309195.8,286047002.2,Y
1563309215.6,286046999.7,P
1563309235.4,286047002.7,P
1563309255.3,286047002.5,N
1563309275.1,286047002.3,N
1563309295.8,286047002.3,N
1563309315.7,286047001.0,N
1563309335.5,286046999.7,N
1563309355.4,286046999.7,N
1563309375.2,286047002.6,N
1563309395.0,286047004.3,Y
1563309395.9,286047004.3,P
1563309415.8,286047001.4,N
1563309435.6,286047000.1,N
1563309455.4,286047002.6,N
1563309475.3,286047001.1,N
1563309495.1,286047000.8,N
1563309515.9,286047001.1,N
1563309535.7,286046998.2,N
1563309555.5,286047000.7,N
1563309575.4,286047000.8,N
1563309595.2,286046998.1,N
1563309615.0,286046998.2,N
1563309615.9,286046998.2,N
1563309635.8,286046998.1,N
1563309655.6,286047000.8,N
1563309675.5,286046998.8,N
1563309695.3,286046997.3,N
1563309715.1,286046997.2,N
1563309735.9,286046996.9,N
1563309755.7,286046996.5,N
1563309775.5,286046997.2,N
1563309795.4,286046997.8,N
1563309815.2,286046995.8,N
1563309835.1,286046995.9,N
1563309836.0,286046995.9,N
1563309855.8,286046996.1,N
1563309875.6,286046993.5,N
1563309895.5,286046993.6,N
1563309915.3,286046993.6,N
1563309935.1,286046994.1,N
1563309955.9,286046996.0,N
1563309975.7,286046993.6,N
1563309995.6,286046996.4,N
1563310015.4,286046993.8,N
1563310035.2,286046993.3,N
1563310055.1,286046994.5,N
1563310056.0,286046994.5,N
1563310075.8,286046986.3,Y
1563310095.7,286046997.0,P
1563310115.5,286046999.1,P
1563310135.3,286046998.4,N
1563310155.2,286046998.6,N
1563310175.0,286046998.1,N
1563310175.9,286046998.1,N
1563310195.7,286046999.5,N
1563310215.6,286046997.2,Y
1563310235.4,286046998.5,P
1563310255.3,286047000.6,P
1563310275.1,286047000.5,N
1563310276.0,286047000.5,N
1563310295.8,286047000.6,N
1563310315.7,286046998.3,N
1563310335.5,286046999.2,N
1563310355.4,286046996.7,Y
1563310375.2,286046996.2,P
1563310395.0,286046995.5,N
1563310395.9,286046995.5,N
1563310415.8,286046995.3,N
1563310435.6,286046997.3,N
1563310455.4,286046997.3,N
1563310475.3,286046996.7,N
1563310495.1,286046998.6,N
1563310515.9,286046999.3,N
1563310535.7,286047001.0,N
1563310555.5,286046996.9,N
1563310575.4,286046997.2,N
1563310595.2,286046996.8,N
1563310615.0,286046998.0,N
1563310615.9,286046998.0,N
1563310635.8,286046997.7,N
1563310655.6,286046999.5,N
1563310675.5,286047000.3,N
1563310695.3,286047002.3,N
1563310715.1,286047001.5,N
1563310735.9,286046999.8,N
1563310755.7,286047001.9,N
1563310775.5,286047003.6,N
1563310795.4,286047004.2,N
